Date String (YYYY-MM-DD hh:mm:ss) UTC,Instrument flags,Ambient pressure (hPa),Sample flow (lpm),Bypass flow (lpm),Sample temperature (°C),Ambient temperature (°C),ASC tube jacket temperature (°C),LED temperature (°C),Box temperature (°C),Sample RH (%),Span deviation,Mass concentration (μg/m³),Mass concentration (μg/m³),Mass concentration (μg/m³)
DateTimeUTC,F1_M11,P_M11,Q1_M11,Q2_M11,T1_M11,T2_M11,T3_M11,T4_M11,T5_M11,U1_M11,ZSPAN_M11,X0_M11,X2_M11,X1_M11
2022-07-13 03:00:00,,0828.0,4.99,0.00,29.7,28.6,00.0,38.3,31.6,18.7,0000.0,0008.63,0004.50,0004.02
2022-07-13 03:01:00,,0828.0,5.01,0.00,29.7,28.1,00.0,38.3,31.6,19.8,0000.0,0008.93,0004.52,0004.03
2022-07-13 03:02:00,,0828.0,5.01,0.00,29.6,27.2,00.0,38.2,31.4,19.5,0000.0,0008.93,0004.51,0004.05
2022-07-13 03:03:00,,0828.0,5.00,0.00,29.5,26.9,00.0,38.2,31.3,19.3,0000.0,0008.42,0004.55,0004.05
2022-07-13 03:04:00,,0828.0,5.00,0.00,29.5,26.9,00.0,38.2,31.2,19.6,0000.0,0008.06,0004.55,0004.06
2022-07-13 03:05:00,,0828.0,5.01,0.00,29.4,27.0,00.0,38.2,31.1,19.4,0000.0,0008.58,0004.58,0004.07
2022-07-13 03:06:00,,0828.0,4.99,0.00,29.4,27.2,00.0,38.2,31.2,19.3,0000.0,0009.63,0004.63,0004.09
2022-07-13 03:07:00,,0828.1,5.00,0.00,29.4,27.4,00.0,38.2,31.2,19.5,0000.0,0009.99,0004.71,0004.11
2022-07-13 03:08:00,,0828.1,5.00,0.00,29.4,27.6,00.0,38.2,31.3,19.5,0000.0,0010.67,0004.77,0004.13
2022-07-13 03:09:00,,0828.1,5.01,0.00,29.4,27.8,00.0,38.2,31.3,19.4,0000.0,0011.29,0004.78,0004.14
2022-07-13 03:10:00,,0828.1,5.00,0.00,29.5,28.0,00.0,38.2,31.4,19.3,0000.0,0011.44,0004.82,0004.16
2022-07-13 03:11:00,,0828.2,5.00,0.00,29.5,28.2,00.0,38.2,31.4,19.2,0000.0,0011.56,0004.83,0004.17
2022-07-13 03:12:00,,0828.1,5.00,0.00,29.5,28.3,00.0,38.2,31.5,19.2,0000.0,0011.40,0004.83,0004.18
2022-07-13 03:13:00,,0828.1,5.00,0.00,29.6,28.4,00.0,38.3,31.5,19.2,0000.0,0011.46,0004.84,0004.19
2022-07-13 03:14:00,,0828.2,5.00,0.00,29.6,28.6,00.0,38.3,31.6,19.1,0000.0,0011.60,0004.85,0004.21
2022-07-13 03:15:00,,0828.2,5.00,0.00,29.6,28.7,00.0,38.3,31.6,19.1,0000.0,0011.64,0004.87,0004.23
2022-07-13 03:16:00,,0828.2,4.99,0.00,29.7,28.5,00.0,38.3,31.7,19.0,0000.0,0011.05,0004.86,0004.25
2022-07-13 03:17:00,,0828.2,4.99,0.00,29.7,27.8,00.0,38.3,31.5,19.0,0000.0,0010.13,0004.85,0004.25
2022-07-13 03:18:00,,0828.2,5.00,0.00,29.6,27.5,00.0,38.2,31.5,19.1,0000.0,0010.09,0004.82,0004.25
2022-07-13 03:19:00,,0828.3,4.99,0.00,29.6,27.6,00.0,38.2,31.4,19.2,0000.0,0009.60,0004.80,0004.25
2022-07-13 03:20:00,,0828.3,5.01,0.00,29.5,27.6,00.0,38.2,31.3,19.2,0000.0,0008.86,0004.78,0004.25
2022-07-13 03:21:00,,0828.3,5.01,0.00,29.5,27.8,00.0,38.2,31.4,19.2,0000.0,0008.89,0004.78,0004.24
2022-07-13 03:22:00,,0828.3,5.00,0.00,29.5,27.9,00.0,38.3,31.4,19.1,0000.0,0009.22,0004.79,0004.24
2022-07-13 03:23:00,,0828.3,5.00,0.00,29.6,28.1,00.0,38.3,31.5,19.2,0000.0,0009.13,0004.76,0004.24
2022-07-13 03:24:00,,0828.4,5.01,0.00,29.6,28.2,00.0,38.3,31.5,19.3,0000.0,0009.14,0004.76,0004.23
2022-07-13 03:25:00,,0828.4,5.01,0.00,29.6,28.4,00.0,38.3,31.6,19.4,0000.0,0009.14,0004.76,0004.21
2022-07-13 03:26:00,,0828.4,5.00,0.00,29.6,28.5,00.0,38.3,31.6,19.8,0000.0,0009.96,0004.77,0004.20
2022-07-13 03:27:00,,0828.4,5.00,0.00,29.7,28.6,00.0,38.3,31.7,20.2,0000.0,0010.18,0004.79,0004.19
2022-07-13 03:28:00,,0828.4,4.99,0.00,29.7,28.3,00.0,38.3,31.6,20.6,0000.0,0010.14,0004.77,0004.18
2022-07-13 03:29:00,,0828.5,5.00,0.00,29.7,27.6,00.0,38.3,31.5,20.6,0000.0,0009.86,0004.73,0004.17
2022-07-13 03:30:00,,0828.4,5.00,0.00,29.6,27.5,00.0,38.3,31.4,20.4,0000.0,0009.87,0004.76,0004.17
2022-07-13 03:31:00,,0828.5,5.00,0.00,29.6,27.5,00.0,38.3,31.4,20.5,0000.0,0010.08,0004.78,0004.16
2022-07-13 03:32:00,,0828.5,5.00,0.00,29.5,27.6,00.0,38.3,31.3,20.2,0000.0,0010.05,0004.78,0004.15
2022-07-13 03:33:00,,0828.5,4.99,0.00,29.6,27.8,00.0,38.3,31.4,20.2,0000.0,0009.69,0004.78,0004.15
2022-07-13 03:34:00,,0828.5,5.01,0.00,29.6,27.9,00.0,38.3,31.4,21.4,0000.0,0009.69,0004.76,0004.14
2022-07-13 03:35:00,,0828.5,4.99,0.00,29.6,28.1,00.0,38.3,31.4,20.2,0000.0,0009.52,0004.74,0004.15
2022-07-13 03:36:00,,0828.5,5.00,0.00,29.6,28.2,00.0,38.3,31.5,20.1,0000.0,0009.31,0004.69,0004.13
2022-07-13 03:37:00,,0828.5,5.00,0.00,29.6,28.4,00.0,38.3,31.6,19.7,0000.0,0008.50,0004.67,0004.12
2022-07-13 03:38:00,,0828.5,5.00,0.00,29.7,28.5,00.0,38.4,31.6,19.7,0000.0,0008.16,0004.67,0004.11
2022-07-13 03:39:00,,0828.5,5.00,0.00,29.7,28.6,00.0,38.4,31.7,19.3,0000.0,0008.20,0004.68,0004.09
2022-07-13 03:40:00,,0828.5,5.00,0.00,29.7,28.5,00.0,38.4,31.7,19.1,0000.0,0008.20,0004.67,0004.07
2022-07-13 03:41:00,,0828.5,5.00,0.00,29.7,27.6,00.0,38.3,31.5,19.1,0000.0,0008.01,0004.60,0004.05
2022-07-13 03:42:00,,0828.5,5.00,0.00,29.6,27.0,00.0,38.3,31.4,19.0,0000.0,0007.74,0004.56,0004.03
2022-07-13 03:43:00,,0828.5,5.00,0.00,29.5,26.8,00.0,38.2,31.3,19.0,0000.0,0008.16,0004.52,0004.01
2022-07-13 03:44:00,,0828.5,5.01,0.00,29.5,26.9,00.0,38.2,31.2,19.2,0000.0,0008.50,0004.51,0003.99
2022-07-13 03:45:00,,0828.5,4.99,0.00,29.4,27.1,00.0,38.2,31.1,19.2,0000.0,0008.51,0004.50,0003.96
2022-07-13 03:46:00,,0828.5,4.99,0.00,29.4,27.3,00.0,38.2,31.2,19.2,0000.0,0008.53,0004.50,0003.93
2022-07-13 03:47:00,,0828.5,5.01,0.00,29.4,27.5,00.0,38.2,31.2,19.1,0000.0,0008.57,0004.52,0003.92
2022-07-13 03:48:00,,0828.5,4.99,0.00,29.4,27.7,00.0,38.2,31.3,19.2,0000.0,0008.86,0004.53,0003.91
2022-07-13 03:49:00,,0828.8,5.00,0.00,29.4,27.9,00.0,38.2,31.3,19.1,0000.0,0008.83,0004.49,0003.89
2022-07-13 03:50:00,,0828.9,5.00,0.00,29.4,28.0,00.0,38.2,31.3,18.9,0000.0,0009.60,0004.45,0003.87
2022-07-13 03:51:00,,0829.0,4.99,0.00,29.5,28.2,00.0,38.2,31.4,18.9,0000.0,0010.12,0004.45,0003.87
2022-07-13 03:52:00,,0828.9,5.00,0.00,29.5,28.3,00.0,38.3,31.4,18.9,0000.0,0010.18,0004.45,0003.87
2022-07-13 03:53:00,,0829.1,5.01,0.00,29.5,28.4,00.0,38.3,31.5,18.7,0000.0,0010.17,0004.45,0003.88
2022-07-13 03:54:00,,0828.7,5.00,0.00,29.6,28.5,00.0,38.3,31.5,18.7,0000.0,0009.72,0004.43,0003.87
2022-07-13 03:55:00,,0828.7,5.00,0.00,29.6,28.6,00.0,38.3,31.6,18.5,0000.0,0009.06,0004.40,0003.87
2022-07-13 03:56:00,,0829.0,5.00,0.00,29.7,28.7,00.0,38.3,31.6,18.6,0000.0,0009.16,0004.41,0003.88
2022-07-13 03:57:00,,0829.2,5.00,0.00,29.7,28.5,00.0,38.3,31.6,18.6,0000.0,0009.26,0004.42,0003.88
2022-07-13 03:58:00,,0829.2,5.00,0.00,29.7,27.7,00.0,38.3,31.5,18.7,0000.0,0009.31,0004.41,0003.89
2022-07-13 03:59:00,,0829.2,5.01,0.00,29.6,26.9,00.0,38.2,31.3,19.0,0000.0,0009.36,0004.43,0003.90
